www.pogodaiklimat.ru

Погода и климат >> Архив погоды >> Россия >> Архангельская область >> Абрамовский маяк


ПОГОДА в Абрамовском маяке

  • Прогноз погоды в Абрамовском маяке
  • Монитор погоды в Абрамовском маяке

АРХИВ ПОГОДЫ в Абрамовском маяке

Время (UTC), дата Ветер
(напр.,м/с)
 
Видим.   Явления Облачность Т
(С)
Тd
(С)
f
(%)
Тe
(С)
Тes
(С)
Комфортность P
(гПа)
Po
(гПа)
Тmin
(С)
Tmax
(С)
R
(мм)
R24
(мм)
S
(см)
18 17.06 ЮЗ 5 20 км 4/0
[Ac trans]
+6.4 +1.8 72 +2 +2 1008.1 1005.4
21 17.06 СЗ 4 20 км 3/0
[Ac trans Ci fib]
+5.3 +1.1 74 +1 +1 1007.7 1005.0
00 18.06 С 7
{10}
20 км 3/0
[Ci fib]
+4.9 +1.0 76 -1 -0 1007.8 1005.1
03 18.06 С 6
{10}
20 км 10/10 600 м
[Sc]
+4.9 +1.1 76 -0 -0 1008.2 1005.5 +4.8
06 18.06 СЗ 5
{10}
20 км 9/9 300 м
[Cu Sc]
+6.3 +0.6 67 +2 +3 1008.5 1005.9
09 18.06 СЗ 6 20 км 6/6 300 м
[Cu Sc]
+6.5 +1.9 72 +2 +4 1009.4 1006.8
12 18.06 С 5 20 км 3/3 300 м
[Cu hum]
+6.3 +1.4 71 +2 +6 1010.3 1007.6
15 18.06 С 4 20 км 3/1 300 м
[Sc Ci sp]
+5.5 +0.8 72 +2 +4 1010.6 1007.9 +6.9
18 18.06 СЗ 3 20 км 6/0
[Ac trans Ci fib]
+4.6 +0.8 76 +1 +1 1010.6 1007.9
21 18.06 СЗ 4 20 км 3/3 300 м
[Sc]
+3.9 +0.8 80 -1 -1 1010.7 1008.0
00 19.06 С 4 20 км 3/1 300 м
[Sc Ci fib]
+4.3 +0.8 78 0 0 1010.3 1007.6
03 19.06 штиль 0 20 км 4/0
[Ac trans Ci fib]
+5.1 +0.8 74 +4 +8 1010.4 1007.7 +3.9
06 19.06 В 3 20 км 9/3 600 м
[Sc Ac As]
+5.8 +1.1 72 +3 +5 1009.6 1007.0
09 19.06 В 5 4000 м слаб. дождь 10/0
[As op]
+6.1 +3.5 83 +2 +3 1008.5 1005.8
12 19.06 ЮВ 5 20 км {дождь} 10/0
[As op]
+8.9 +6.6 85 +5 +6 1006.7 1004.1
15 19.06 ЮВ 5 20 км 10/0
[Ac As]
+10.1 +7.2 82 +7 +8 1004.6 1002.0 +12.9 0.9
18 19.06 З 3 20 км 9/8 600 м
[Sc Ac trans]
+12.7 +8.2 74 +11 +11 1003.2 1000.6
21 19.06 С 7-11
{11}
20 км {ливн. осадки} 9/9 600 м
[Sc]
+7.6 +6.3 91 +3 +3 1003.3 1000.7
00 20.06 С 10-13
{13}
20 км {ливн. осадки} 10/10 300 м
[St]
+5.7 +4.7 93 -1 -1 1006.4 1003.7
03 20.06 С 7
{13}
20 км 10/10 300 м
[Sc]
+5.1 +2.6 84 -0 -0 1009.3 1006.7 +5.0 0.4
06 20.06 СЗ 7
{10}
20 км 9/9 300 м
[Cu med, cong]
+5.7 +2.2 78 +1 +1 1011.5 1008.8 +4.9
09 20.06 З 7 20 км 9/9 300 м
[Cu hum]
+5.9 +2.6 79 +1 +1 1013.4 1010.7
12 20.06 СЗ 5 20 км 9/9 300 м
[Sc]
+7.7 +3.3 74 +4 +5 1014.6 1011.9
15 20.06 СЗ 5 20 км 9/9 300 м
[Sc]
+7.5 +3.2 74 +4 +4 1015.2 1012.5 +7.8
18 20.06 З 3 20 км 3/3 600 м
[Sc]
+7.8 +3.5 74 +5 +5 1014.8 1012.2
21 20.06 ЮЗ 4 20 км 8/8 600 м
[Sc]
+5.4 +3.4 87 +1 +1 1014.3 1011.6
00 21.06 СЗ 5 20 км 8/8 600 м
[Sc]
+6.9 +5.3 90 +3 +3 1015.2 1012.5
03 21.06 С 5 20 км 3/1 600 м
[Sc Ac trans]
+6.3 +2.9 79 +2 +3 1016.4 1013.8 +5.1
06 21.06 С 3 20 км 3/0
[Ac trans Ci fib]
+7.4 +2.0 69 +5 +11 1016.8 1014.1
09 21.06 С 3 20 км 6/0
[Ac trans Ci fib]
+7.7 +2.4 69 +5 +13 1016.9 1014.2
12 21.06 В 5 20 км 9/3 600 м
[Sc Ac As]
+7.0 +3.3 77 +3 +4 1015.9 1013.2
15 21.06 В 4 20 км 10/0
[As op Cs]
+7.8 +4.6 80 +5 +6 1014.2 1011.6 +8.1
18 21.06 ЮВ 4 20 км в посл. час дождь 10/0
[As op]
+9.8 +7.0 83 +7 +7 1012.2 1009.6
21 21.06 В 3 4000 м слаб. ливневой дождь 10/10 300 м
[Cb cap]
+9.6 +8.3 92 +7 +7 1010.5 1007.9
00 22.06 В 6 2000 м ливневой дождь 10/10 300 м
[Cb cap]
+8.6 +7.8 95 +4 +4 1007.8 1005.2
03 22.06 В 7 20 км в посл. час ливневой дождь 10/6 300 м
[Cb cap Ac As]
+8.2 +7.4 95 +4 +4 1007.2 1004.6 +7.8 8
06 22.06 В 7
{10}
20 км {ливн. осадки} 10/8 600 м
[Sc Ac As]
+9.3 +8.1 92 +5 +5 1006.4 1003.8
09 22.06 СВ 3
{10}
20 км 9/8 600 м
[Sc Ac trans Ci sp]
+11.1 +8.7 85 +9 +11 1007.5 1004.9
12 22.06 СВ 3 20 км 10/10 600 м
[Sc]
+10.3 +8.3 87 +8 +8 1007.5 1004.9
15 22.06 СВ 4 20 км 10/8 600 м
[Sc Ac lent]
+9.9 +7.5 85 +7 +7 1007.3 1004.7 +11.4
18 22.06 В 7 20 км 10/10 600 м
[Sc]
+9.7 +7.0 83 +6 +6 1006.2 1003.6
21 22.06 В 4
{10}
20 км 10/1 600 м
[Sc Ac lent]
+9.1 +6.0 81 +6 +6 1007.7 1002.1
00 23.06 В 7-10
{10}
2000 м ливневой дождь 10/10 300 м
[Cb cap]
+7.5 +6.7 95 +3 +3 1003.1 1000.5
03 23.06 СВ 6
{11}
2000 м ливневой дождь 10/10 300 м
[Cb cap]
+7.1 +6.4 95 +2 +2 1001.2 998.6 +7.1 21
06 23.06 СВ 4
{10}
4000 м слаб. дождь 10/10 300 м
[Frnb Ns]
+6.9 +6.2 95 +3 +3 1002.1 999.5 +6.9
09 23.06 С 5 4000 м слаб. дождь 10/10 300 м
[Frnb Ns]
+5.9 +5.0 94 +1 +1 1005.3 1002.7
12 23.06 С 5 4000 м слаб. дождь 10/10 300 м
[Frnb Ns]
+5.6 +4.3 91 +1 +1 1007.8 1005.2
15 23.06 С 6 20 км в посл. час дождь 10/10 300 м
[St]
+5.5 +3.8 89 0 0 1010.0 1007.4 +7.1 17
18 23.06 С 6 20 км {дождь} 9/9 300 м
[Sc]
+5.0 +2.6 84 -0 -0 1011.8 1009.2
21 23.06 С 8-11
{11}
20 км 10/10 300 м
[Sc]
+5.0 +2.9 86 -1 -1 1013.1 1010.4
00 24.06 С 7
{11}
20 км 10/10 300 м
[Sc]
+4.6 +1.7 81 -1 -1 1014.7 1012.0
03 24.06 СЗ 6 20 км 10/10 300 м
[Cb cap]
+4.6 +2.5 86 -1 -1 1015.9 1013.2 +4.5 0.4
06 24.06 СЗ 6 20 км 10/10 300 м
[St]
+5.2 +3.4 88 0 0 1017.3 1014.6
09 24.06 СЗ 7 20 км 10/10 300 м
[St]
+6.1 +3.6 84 +1 +1 1019.2 1016.5
12 24.06 СЗ 7-10
{10}
20 км 9/9 300 м
[Cu med, cong]
+6.6 +4.1 84 +2 +2 1020.9 1018.3
15 24.06 СЗ 8-10
{11}
20 км 8/8 300 м
[Cb cap]
+6.3 +3.3 81 +1 +1 1022.2 1019.5 +6.9

 

Местоположение метеостанции Абрамовский маяк (Архангельская область, Россия): широта 66.38 долгота 43.25 высота над уровнем моря 20 м.

В архиве по умолчанию представлена погода в Абрамовском маяке за последнюю неделю. Архивные данные за месяц целиком и за предыдущие месяцы, начиная с января 2011 года, Вы можете получить, выбрав интересующий диапазон дат из раскрывающегося списка и нажав кнопку "Ввод!".


*Определитесь, кто Вы:
робот инопланетянин человек

Внимание! Время в таблицах - всемирное. Для получения местного времени необходимо прибавить поправку, которая равна 3 ч.

Смотрите также архив погоды в соседних городах и на ближайших метеорологических станциях:

Погода на Моржовец Острове (Архангельская область, Россия) (51 км)
Погода в Неси (Ненецкий АО, Россия) (68 км)
Погода в Мезене (Архангельская область, Россия) (72 км)
Погода на Сосновец Острове (Мурманская область, Россия) (115 км)
Погода в Кепино (Архангельская область, Россия) (129 км)
Погода в Мосеево (Архангельская область, Россия) (149 км)
Погода в Пялице (Мурманская область, Россия) (168 км)
Погода в Шойне (Ненецкий АО, Россия) (172 км)
Погода в Каневке (Мурманская область, Россия) (178 км)
Погода в Пинеге (Архангельская область, Россия) (184 км)

Пояснения к столбцам:

Ветер - указаны скорость ветра в м/с - средняя за 10 мин, порывы в срок и между сроками (в фигурных скобках) и направление, откуда дует ветер: С - северный, СВ - северо-восточный, В - восточный, ЮВ - юго-восточный, Ю - южный, ЮЗ - юго-западный, З - западный, СЗ - северо-западный.
Видимость - горизонтальная дальность видимости в метрах или километрах. При видимости от 1 до 10 км при отсутствии осадков обычно наблюдается дымка, при ухудшении видимости до 1 км и менее - туман. В сухую погоду видимость может ухудшаться дымом, пылью или мглою.
Явления - указаны атмосферные явления, наблюдавшиеся в срок или в последний час перед сроком; фигурными скобками обозначены явления, наблюдавшиеся между сроками (за 1-3 часа до срока); квадратными скобками обозначены град или гололедные отложения с указанием их диаметра в мм.
Облачность - указаны через наклонную черту общая и нижняя облачность в баллах и высота нижней границы облаков в метрах; квадратными скобками обозначены формы облаков: Ci - перистые, Cs - перисто-слоистые, Cc - перисто-кучевые, Ac - высококучевые, As - высокослоистые, Sc - слоисто-кучевые, Ns - слоисто-дождевые, Cu - кучевые, Cb - кучево-дождевые. Подробнее классификацию облаков см. в Атласе облаков (PDF).
T - Температура воздуха - температура, измеренная на высоте 2 м над землей.
Td - Температура точки росы - температура, при понижении до которой содержащийся в воздухе водяной пар достигнет насыщения.
f - Относительная влажность воздуха - влажноcть воздуха, измеренная на высоте 2 м над землей.
Te - Эффективная температура - температура, которую ощущает одетый по сезону человек в тени. Характеристика душности погоды. При расчете учитывается влияние влажности воздуха и скорости ветра на теплоощущения человека.
Tes - Эффективная температура на солнце - температура, которую ощущает человек, с поправкой на солнечный нагрев. Характеристика знойности погоды. Зависит от высоты солнца над горизонтом, облачности и скорости ветра. Ночью, в пасмурную погоду, а также при ветре 12 м/с и более поправка равна нулю.
P - Атмосферное давление - приведенное к уровню моря атмосферное давление.
Po - Атмосферное давление - измеренное на уровне метеостанции атмосферное давление.
Tmin - Минимальная температура - минимум температуры воздуха на высоте 2 м над землей.
Tmax - Максимальная температура - максимум температуры воздуха на высоте 2 м над землей.
R - Количество осадков - Количество выпавших осадков за период времени, мм. При наведении курсора мыши на число - период времени, за который выпало указанное количество осадков.
R24 - Количество осадков - Количество выпавших осадков за 24 часа, мм.
S - Снежный покров - Высота снежного покрова, см. При наведении курсора мыши на число - состояние снежного покрова и степень покрытия местности в баллах.